Meteo pe oră la Allensbach

Astăzi, 27 Ianuarie, Miercuri

Timp Temperatura Precipitaţii Vânt Presiune Umiditate
00:00 -4°C° 0 mm 1 m/s 726 mmHg 90%
01:00 -4°C° 0 mm 1 m/s 726 mmHg 90%
02:00 -6°C° 0 mm 1 m/s 725 mmHg 89%
03:00 -6°C° 0 mm 1 m/s 724 mmHg 89%
04:00 -7°C° 0 mm 1 m/s 724 mmHg 89%
05:00 -7°C° 0 mm 1 m/s 723 mmHg 88%
06:00 -6°C° 0 mm 1 m/s 723 mmHg 87%
07:00 -6°C° 0 mm 1 m/s 722 mmHg 86%
08:00 -4°C° 0.1 mm 1 m/s 722 mmHg 86%
09:00 -3°C° 0.1 mm 1 m/s 722 mmHg 86%
10:00 -2°C° 0.1 mm 1 m/s 722 mmHg 86%
11:00 -2°C° 1.3 mm 1 m/s 721 mmHg 89%
12:00 -1°C° 1.3 mm 1 m/s 721 mmHg 92%
13:00 -3°C° 1.3 mm 2 m/s 721 mmHg 96%
14:00 -2°C° 0.5 mm 2 m/s 720 mmHg 96%
15:00 -1°C° 0.5 mm 2 m/s 720 mmHg 96%
16:00 -1°C° 0.5 mm 3 m/s 720 mmHg 96%
17:00 -1°C° 0.1 mm 2 m/s 720 mmHg 96%
18:00 +1°C° 0.1 mm 2 m/s 721 mmHg 97%
19:00 +2°C° 0.1 mm 1 m/s 721 mmHg 98%
20:00 +2°C° 0 mm 1 m/s 721 mmHg 98%
21:00 +2°C° 0 mm 1 m/s 722 mmHg 98%
22:00 +1°C° 0 mm 2 m/s 722 mmHg 98%
23:00 +1°C° 0 mm 2 m/s 722 mmHg 98%

Mâine, 28 Ianuarie, Joi

Timp Temperatura Precipitaţii Vânt Presiune Umiditate
00:00 +1°C° 0 mm 2 m/s 722 mmHg 97%
01:00 +1°C° 0 mm 2 m/s 722 mmHg 97%
02:00 +2°C° 0.1 mm 2 m/s 722 mmHg 98%
03:00 +2°C° 0.1 mm 2 m/s 722 mmHg 98%
04:00 +2°C° 0.1 mm 2 m/s 721 mmHg 99%
05:00 +3°C° 0.6 mm 2 m/s 721 mmHg 99%
06:00 +3°C° 0.6 mm 2 m/s 721 mmHg 99%
07:00 +3°C° 0.6 mm 2 m/s 720 mmHg 99%
08:00 +3°C° 1 mm 2 m/s 720 mmHg 99%
09:00 +3°C° 1 mm 2 m/s 719 mmHg 99%
10:00 +2°C° 1 mm 3 m/s 719 mmHg 99%
11:00 +3°C° 1.6 mm 3 m/s 718 mmHg 99%
12:00 +3°C° 1.6 mm 3 m/s 717 mmHg 99%
13:00 +3°C° 1.6 mm 4 m/s 717 mmHg 99%
14:00 +4°C° 1.5 mm 4 m/s 716 mmHg 99%
15:00 +3°C° 1.5 mm 5 m/s 716 mmHg 98%
16:00 +4°C° 1.5 mm 6 m/s 716 mmHg 98%
17:00 +5°C° 0.6 mm 5 m/s 716 mmHg 97%
18:00 +5°C° 0.6 mm 5 m/s 717 mmHg 97%
19:00 +5°C° 0.6 mm 5 m/s 717 mmHg 97%
20:00 +5°C° 0.5 mm 5 m/s 717 mmHg 96%
21:00 +5°C° 0.5 mm 5 m/s 718 mmHg 96%
22:00 +6°C° 0.5 mm 5 m/s 718 mmHg 96%
23:00 +5°C° 0.2 mm 5 m/s 718 mmHg 96%

Poimâine, 29 Ianuarie, Vineri

Timp Temperatura Precipitaţii Vânt Presiune Umiditate
00:00 +5°C° 0.2 mm 4 m/s 718 mmHg 95%
01:00 +5°C° 0.2 mm 4 m/s 718 mmHg 95%
02:00 +5°C° 0.4 mm 3 m/s 717 mmHg 95%
03:00 +4°C° 0.4 mm 3 m/s 716 mmHg 96%
04:00 +5°C° 0.4 mm 2 m/s 715 mmHg 97%
05:00 +5°C° 1.2 mm 2 m/s 714 mmHg 97%
06:00 +5°C° 1.2 mm 2 m/s 713 mmHg 97%
07:00 +4°C° 1.2 mm 2 m/s 712 mmHg 98%
08:00 +4°C° 1.7 mm 3 m/s 712 mmHg 97%
09:00 +5°C° 1.7 mm 4 m/s 711 mmHg 96%
10:00 +5°C° 1.7 mm 5 m/s 711 mmHg 95%
11:00 +5°C° 2.8 mm 6 m/s 711 mmHg 95%
12:00 +5°C° 2.8 mm 7 m/s 712 mmHg 94%
13:00 +5°C° 2.8 mm 8 m/s 712 mmHg 93%
14:00 +5°C° 0.4 mm 7 m/s 713 mmHg 91%
15:00 +4°C° 0.4 mm 7 m/s 714 mmHg 89%
16:00 +4°C° 0.4 mm 6 m/s 715 mmHg 87%
17:00 +4°C° 0.1 mm 6 m/s 715 mmHg 88%
18:00 +3°C° 0.1 mm 5 m/s 715 mmHg 89%
19:00 +3°C° 0.1 mm 5 m/s 716 mmHg 90%
20:00 +3°C° 0.1 mm 5 m/s 716 mmHg 90%
21:00 +3°C° 0.1 mm 5 m/s 716 mmHg 90%
22:00 +2°C° 0.1 mm 5 m/s 716 mmHg 91%
23:00 +2°C° 0.1 mm 5 m/s 715 mmHg 90%

30 Ianuarie, Sâmbătă

Timp Temperatura Precipitaţii Vânt Presiune Umiditate
00:00 +2°C° 0.1 mm 5 m/s 715 mmHg 90%
01:00 +3°C° 0.1 mm 5 m/s 715 mmHg 90%
02:00 +2°C° 0.1 mm 5 m/s 714 mmHg 90%
03:00 +3°C° 0.1 mm 4 m/s 714 mmHg 91%
04:00 +3°C° 0.1 mm 4 m/s 713 mmHg 92%
05:00 +3°C° 0.1 mm 3 m/s 713 mmHg 93%
06:00 +3°C° 0.1 mm 3 m/s 712 mmHg 95%
07:00 +4°C° 0.1 mm 2 m/s 712 mmHg 96%
08:00 +4°C° 0 mm 2 m/s 711 mmHg 95%
09:00 +5°C° 0 mm 1 m/s 710 mmHg 94%
10:00 +5°C° 0 mm 1 m/s 709 mmHg 93%
11:00 +5°C° 0.3 mm 1 m/s 709 mmHg 93%
12:00 +5°C° 0.3 mm 1 m/s 708 mmHg 94%
13:00 +5°C° 0.3 mm 1 m/s 707 mmHg 94%
14:00 +5°C° 1.1 mm 1 m/s 707 mmHg 95%
15:00 +5°C° 1.1 mm 1 m/s 707 mmHg 96%
16:00 +4°C° 1.1 mm 2 m/s 707 mmHg 97%
17:00 +4°C° 1.1 mm 2 m/s 707 mmHg 97%
18:00 +3°C° 1.1 mm 3 m/s 707 mmHg 96%
19:00 +4°C° 1.1 mm 3 m/s 707 mmHg 96%
20:00 +4°C° 1.1 mm 3 m/s 708 mmHg 95%
21:00 +4°C° 1.1 mm 3 m/s 708 mmHg 95%
22:00 +5°C° 1.1 mm 2 m/s 709 mmHg 94%
23:00 +4°C° 0.5 mm 2 m/s 709 mmHg 95%

31 Ianuarie, Duminică

Timp Temperatura Precipitaţii Vânt Presiune Umiditate
00:00 +4°C° 0.5 mm 2 m/s 710 mmHg 96%
01:00 +5°C° 0.5 mm 1 m/s 710 mmHg 97%
02:00 +3°C° 0.9 mm 2 m/s 711 mmHg 97%
03:00 +3°C° 0.9 mm 2 m/s 711 mmHg 97%
04:00 +1°C° 0.9 mm 3 m/s 712 mmHg 97%
05:00 +1°C° 0.4 mm 2 m/s 712 mmHg 96%
06:00 -1°C° 0.4 mm 2 m/s 713 mmHg 95%
07:00 -2°C° 0.4 mm 2 m/s 714 mmHg 94%
08:00 -2°C° 0.2 mm 2 m/s 714 mmHg 93%
09:00 -2°C° 0.2 mm 2 m/s 715 mmHg 92%
10:00 -2°C° 0.2 mm 2 m/s 716 mmHg 91%
11:00 -1°C° 0 mm 2 m/s 716 mmHg 88%
12:00 +1°C° 0 mm 1 m/s 716 mmHg 86%
13:00 +2°C° 0 mm 1 m/s 716 mmHg 84%
14:00 +2°C° 0 mm 1 m/s 716 mmHg 85%
15:00 +2°C° 0 mm 1 m/s 716 mmHg 86%
16:00 +1°C° 0 mm 0 m/s 715 mmHg 86%
17:00 +1°C° 0 mm 0 m/s 715 mmHg 88%
18:00 0°C° 0 mm 0 m/s 715 mmHg 90%
19:00 0°C° 0 mm 0 m/s 715 mmHg 92%
20:00 0°C° 0 mm 0 m/s 714 mmHg 93%
21:00 0°C° 0 mm 0 m/s 714 mmHg 94%
22:00 0°C° 0 mm 0 m/s 714 mmHg 94%
23:00 +1°C° 0 mm 1 m/s 713 mmHg 94%

1 Februarie, Luni

Timp Temperatura Precipitaţii Vânt Presiune Umiditate
00:00 +1°C° 0 mm 1 m/s 713 mmHg 94%
01:00 +1°C° 0 mm 1 m/s 712 mmHg 94%
02:00 +1°C° 0.5 mm 1 m/s 712 mmHg 94%
03:00 +1°C° 0.5 mm 2 m/s 711 mmHg 94%
04:00 +1°C° 0.5 mm 2 m/s 711 mmHg 94%
05:00 +2°C° 0.6 mm 2 m/s 711 mmHg 95%
06:00 +2°C° 0.6 mm 2 m/s 711 mmHg 95%
07:00 +2°C° 0.6 mm 2 m/s 711 mmHg 96%
08:00 +2°C° 1.5 mm 3 m/s 711 mmHg 96%
09:00 +1°C° 1.5 mm 4 m/s 711 mmHg 96%
10:00 +3°C° 1.5 mm 4 m/s 711 mmHg 97%
11:00 +2°C° 1.7 mm 5 m/s 712 mmHg 96%
12:00 +2°C° 1.7 mm 6 m/s 712 mmHg 96%
13:00 +3°C° 1.7 mm 6 m/s 713 mmHg 96%
14:00 +3°C° 1.4 mm 6 m/s 713 mmHg 96%
15:00 +3°C° 1.4 mm 6 m/s 714 mmHg 95%
16:00 +3°C° 1.4 mm 7 m/s 714 mmHg 95%
17:00 +3°C° 0.5 mm 6 m/s 715 mmHg 94%
18:00 +3°C° 0.5 mm 6 m/s 716 mmHg 92%
19:00 +2°C° 0.5 mm 6 m/s 717 mmHg 91%
20:00 +2°C° 0 mm 5 m/s 717 mmHg 90%
21:00 +2°C° 0 mm 5 m/s 717 mmHg 89%
22:00 +3°C° 0 mm 4 m/s 717 mmHg 88%
23:00 +3°C° 0.1 mm 4 m/s 717 mmHg 90%
Arată mai mult

Formular de consimțământ

Meteoprog și furnizorii noștri de servicii pot stoca și accesa date personale, precum cookies, identificatori de dispozitiv sau alte tehnologii similare pe dispozitivul dumneavoastră și procesa astfel de date pentru a personaliza conținutul și reclamele, dar și pentru a oferi caracteristici de social media și pentru a analiza traficul.

  • Stocarea și/sau accesarea informațiilor pe dispozitivul dumneavoastră

    Cookies, identificatori de dispozitiv sau alte informații pot fi stocate sau accesate pe dispozitiv în scopurile indicate mai sus.

  • Reclame și conținut personalizat, evaluarea reclamelor și a conținutului, informații despre audiențe și dezvoltarea produselor

    Reclamele și conținutul pot fi personalizate pe baza unui profil. Pot fi adăugate date suplimentare pentru a personaliza mai bine reclamele și conținutul. Performanța reclamelor și conținutului poate fi măsurată. Pot fi obținute informații despre utilizatorii care au văzut reclamele și conținutul. Aceste date pot fi utilizate pentru a dezvolta sau îmbunătăți experiența utilizatorilor, sistemele și software-ul.

Dând clic pe ‘Sunt de acord’, permiteți utilizarea cookie-urilor menționate, a identificatorilor de dispozitiv, balizelor web sau altor tehnologii similare. Setările pot fi modificate din browser-ul dispozitivului dumneavoastră.

În anumite scopuri, interesele legitime pot prima asupra consimțământului. Puteți citi mai multe informații în acest sens în Politica privind Confidențialitatea Datelor și Cookie.